sat.trackr.live / text

‹ back to catalog

STARLINK-11114 [DTC]

NORAD 59757 · 2024-091E

PAYLOAD ACTIVE UNKNOWN

§ Identity

Operator
Country
US
Launch date
2024-05-14
Launch site
AFWTR
Launch vehicle
Mass (kg)
RCS (m²)

Purposes: comms

External: N2YO · Heavens-Above · Gunter

§ Orbital elements

Epoch: 2026-09-21T10:05:05.741376Z

Period
91.73 min
Inclination
53.1581°
Eccentricity
0.0001146
Mean motion
15.69743211 rev/d
Perigee alt
358.9 km
Apogee alt
360.4 km
Semi-major
6,737.8 km
B*
-4.8310e-5
RAAN
321.5084°
Arg perigee
65.9361°
Mean anomaly
294.1777°
Rev number
13,625

§ Raw data

STARLINK-11114 [DTC]1 59757U 24091E   26264.42020534 -.00006445  00000+0 -48310-4 0  99992 59757  53.1581 321.5084 0001146  65.9361 294.1777 15.69743211136256

JSON: /api/v1/satellites/59757 · /tle

For live sub-satellite position, see the globe view (requires WebGL).

§ Visibility from observer

Set your observer location to see the next 7 days of passes ≥ 10°. The values pass through the URL so the page stays shareable.

No JS? Fill the form by hand. The geolocation button needs JavaScript.